Location: Observatory
(52.1446°N, 0.4624°W)
Time: 02:06:28
(UTC+01:00)

ISS - Pass Details

Date: 20 May 2018
Orbit: 402 x 406 km, 51.6° (Epoch: 21 June)

Event Time Altitude Azimuth Distance (km) Brightness Sun altitude
Rises 23:37:21 0° 240° (WSW) 2,315 -0.1 -15.6°
Reaches altitude 10° 23:39:28 10° 234° (SW) 1,457 -1.2 -15.7°
Maximum altitude 23:42:37 47° 159° (SSE) 542 -3.7 -15.9°
Drops below altitude 10° 23:45:47 10° 84° (E) 1,460 -1.1 -16.0°
Sets 23:47:54 0° 79° (E) 2,321 0.0 -16.1°
